Weather History for Monticello, AR

Change the Weather History Date:

Sunday, March 30, 2014

  Actual Average Record
Temperature  
Mean Temperature 55 °F -  
Max Temperature 68 °F 68 °F 89 °F (1967)
Min Temperature 42 °F 47 °F 27 °F (1991)
Degree Days  
Heating Degree Days 10    
Growing Degree Days 5 (Base 50)    
Moisture  
Dew Point 41 °F    
Average Humidity 66    
Maximum Humidity 93    
Minimum Humidity 36    
Precipitation  
Precipitation 0.00 in - - ()
Sea Level Pressure  
Sea Level Pressure 30.21 in    
Wind  
Wind Speed 3 mph (SE)    
Max Wind Speed 8 mph    
Max Gust Speed -    
Visibility 10 miles    
Events Rain    
Averages and records for this station are not official NWS values.
T = Trace of Precipitation, MM = Missing Value Source: NWS Daily Summary

Daily Weather History Graph

Daily Weather History Graph

Search for Another Location

Airport:

Trip Planner

Search our weather history database for the weather conditions in past years. The results will help you decide how hot, cold, wet, or windy it might be!

Date:

Astronomy

Mar. 30, 2014 Rise Set
Actual Time 6:57 AM CDT 7:26 PM CDT
Civil Twilight 6:32 AM CDT 7:51 PM CDT
Nautical Twilight 6:02 AM CDT 8:20 PM CDT
Astronomical Twilight 5:33 AM CDT 8:50 PM CDT
Moon 6:43 AM CDT (3/30) 7:37 PM CDT (3/30)
Length of Visible Light 13h 18m
Length of Day
12h 28m
Waning Crescent, 0% of the Moon is Illuminated
Mar 30
Waning Crescent
Mar 30
New
Apr 7
First Quarter
Apr 15
Full
Apr 22
Last Quarter

Hourly Weather History & Observations

Time (CDT) Temp. Windchill Dew Point Humidity Pressure Visibility Wind Dir Wind Speed Gust Speed Precip Events Conditions
12:53 AM 45.0 °F - 42.1 °F 90% 30.23 in 10.0 mi Calm Calm - N/A   Clear
1:53 AM 45.0 °F - 41.0 °F 86% 30.24 in 10.0 mi Calm Calm - N/A   Clear
2:53 AM 44.1 °F - 41.0 °F 89% 30.25 in 10.0 mi Calm Calm - N/A   Clear
3:53 AM 45.0 °F - 41.0 °F 86% 30.25 in 10.0 mi Calm Calm - N/A   Clear
4:53 AM 44.1 °F 42.5 °F 41.0 °F 89% 30.25 in 10.0 mi East 3.5 mph - N/A   Clear
5:53 AM 42.1 °F 39.2 °F 39.9 °F 92% 30.26 in 7.0 mi East 4.6 mph - N/A   Clear
6:53 AM 42.1 °F 40.2 °F 39.9 °F 92% 30.27 in 8.0 mi East 3.5 mph - N/A   Clear
7:53 AM 44.1 °F 42.5 °F 42.1 °F 93% 30.29 in 5.0 mi East 3.5 mph - N/A   Clear
8:53 AM 46.9 °F - 41.0 °F 80% 30.30 in 10.0 mi ESE 5.8 mph - N/A   Clear
9:53 AM 51.1 °F - 42.1 °F 71% 30.31 in 10.0 mi Calm Calm - N/A   Clear
10:53 AM 55.9 °F - 39.9 °F 55% 30.30 in 10.0 mi East 5.8 mph - 0.00 in Rain Light Rain
11:53 AM 59.0 °F - 39.0 °F 48% 30.28 in 10.0 mi NE 6.9 mph - 0.00 in   Clear
12:53 PM 63.0 °F - 39.9 °F 43% 30.26 in 10.0 mi Variable 3.5 mph - N/A   Clear
1:53 PM 63.0 °F - 39.0 °F 41% 30.23 in 10.0 mi SE 4.6 mph - N/A   Clear
2:53 PM 66.0 °F - 39.9 °F 38% 30.20 in 10.0 mi SE 6.9 mph - N/A   Clear
3:53 PM 66.9 °F - 39.9 °F 37% 30.17 in 10.0 mi SSE 6.9 mph - N/A   Clear
4:53 PM 68.0 °F - 43.0 °F 40% 30.15 in 10.0 mi SSE 8.1 mph - N/A   Clear
5:53 PM 66.9 °F - 39.0 °F 36% 30.12 in 10.0 mi South 8.1 mph - N/A   Clear
6:53 PM 64.0 °F - 43.0 °F 46% 30.11 in 10.0 mi SSE 6.9 mph - N/A   Clear
7:53 PM 60.1 °F - 42.1 °F 51% 30.12 in 10.0 mi SE 4.6 mph - N/A   Clear
8:53 PM 55.9 °F - 43.0 °F 62% 30.12 in 10.0 mi SE 4.6 mph - 0.00 in   Clear
9:53 PM 54.0 °F - 43.0 °F 66% 30.13 in 10.0 mi Calm Calm - N/A   Clear
10:53 PM 52.0 °F - 43.0 °F 71% 30.12 in 10.0 mi SE 3.5 mph - N/A   Clear
11:53 PM 52.0 °F - 43.0 °F 71% 30.11 in 10.0 mi SSE 3.5 mph - N/A   Clear